Location: Passo di Treia
(43.2833°N, 13.3333°E)
Time: 03:58:26
(UTC+00:00)

Cosmos 1417 Rocket - Pass Details

Date: 09 December 2019
Orbit: 952 x 999 km, 83.0° (Epoch: 17 January)

Event Time Altitude Azimuth Distance (km) Brightness Sun altitude
Rises 17:45:30 0° 353° (N) 3,639 7.5 -23.7°
Reaches altitude 10° 17:48:01 10° 355° (N) 2,688 6.8 -24.1°
Maximum altitude 17:54:10 77° 81° (E) 982 4.3 -25.2°
Drops below altitude 10° 18:00:17 10° 168° (SSE) 2,679 6.7 -26.3°
Sets 18:02:47 0° 170° (S) 3,625 7.5 -26.8°
